Location: downtown San Diego
(32.7310°N, 117.1990°W)
Time: 17:54:51
(UTC-07:00)

Cosmos 1943 Rocket - Pass Details

Date: 19 May 2017
Orbit: 811 x 845 km, 71.0° (Epoch: 26 May)

Event Time Altitude Azimuth Distance (km) Brightness Sun altitude
Rises 20:09:24 0° 358° (N) 3,391 5.8 -5.7°
Reaches altitude 10° 20:12:55 10° 20° (NNE) 2,446 4.7 -6.3°
Maximum altitude 20:16:13 16° 57° (ENE) 2,057 4.0 -6.9°
Drops below altitude 10° 20:19:30 10° 93° (E) 2,426 4.0 -7.5°
Enters shadow 20:20:23 - 101° (E) 2,630 4.2 -7.7°
